Location: Unspecified
(0.0000°N, 0.0000°E)
Time: 19:17:00
(UTC+00:00)

CUTE-I - Pass Details

Date: 05 June 2019
Orbit: 810 x 825 km, 98.7° (Epoch: 18 June)

Event Time Altitude Azimuth Distance (km) Brightness Sun altitude
Rises 18:32:40 0° 184° (S) 3,348 ? -7.9°
Reaches altitude 10° 18:35:12 10° 193° (SSW) 2,411 ? -8.5°
Maximum altitude 18:39:59 34° 257° (WSW) 1,308 ? -9.6°
Drops below altitude 10° 18:44:45 10° 321° (NW) 2,394 ? -10.7°
Sets 18:47:16 0° 331° (NNW) 3,320 ? -11.2°
